Location: Bovenkerk
(52.2915°N, 4.8336°E)
Time: 01:54:04
(UTC+00:00)

Cosmos 1892 - Pass Details

Date: 09 April 2020
Orbit: 503 x 526 km, 82.5° (Epoch: 03 June)

Event Time Altitude Azimuth Distance (km) Brightness Sun altitude
Rises 19:54:41 0° 354° (N) 2,676 6.9 -12.8°
Reaches altitude 10° 19:56:56 10° 1° (N) 1,783 5.8 -13.1°
Maximum altitude 20:00:39 41° 73° (ENE) 774 3.3 -13.6°
Enters shadow 20:02:34 24° 130° (SE) 1,126 3.8 -13.8°
